Weather History for KCAR - October, 2013

Change the Weather History Date:

Monday, October 14, 2013

  Actual Average Record
Temperature  
Mean Temperature 45 °F 44 °F  
Max Temperature 53 °F 53 °F 75 °F (1995)
Min Temperature 37 °F 35 °F 18 °F (1972)
Degree Days  
Heating Degree Days 20 21  
Month to date heating degree days 193 260  
Since 1 July heating degree days 564 727  
Cooling Degree Days 0 0  
Month to date cooling degree days 0 0  
Year to date cooling degree days 192 180  
Moisture  
Dew Point 46 °F    
Average Humidity 92    
Maximum Humidity 100    
Minimum Humidity 83    
Precipitation  
Precipitation 0.01 in 0.11 in 1.15 in (1944)
Month to date precipitation 0.91 1.59  
Year to date precipitation 40.94 29.65  
Snow  
Snow 0.00 in 0.00 in 0.30 in (1988)
Month to date snowfall 0.0 0.2  
Since 1 July snowfall 0.0 0.3  
Since 1 September snowfall 0.0 0.3  
Snow Depth 0.00 in    
Sea Level Pressure  
Sea Level Pressure 30.25 in    
Wind  
Wind Speed 3 mph (South)    
Max Wind Speed 8 mph    
Max Gust Speed 12 mph    
Visibility 6 miles    
Events Fog , Rain    
T = Trace of Precipitation, MM = Missing Value Source: NWS Daily Summary

Daily Weather History Graph

Daily Weather History Graph

Search for Another Location

Airport or City:

Trip Planner

Search our weather history database for the weather conditions in past years. The results will help you decide how hot, cold, wet, or windy it might be!

Date:

Astronomy

Oct. 14, 2013 Rise Set
Actual Time 6:48 AM EDT 5:46 PM EDT
Civil Twilight 6:18 AM EDT 6:16 PM EDT
Nautical Twilight 5:43 AM EDT 6:52 PM EDT
Astronomical Twilight 5:07 AM EDT 7:27 PM EDT
Moon 3:27 PM EDT (10/14) 1:44 AM EDT (10/14)
Length of Visible Light 11h 58m
Length of Day
10h 57m
Waxing Gibbous, 79% of the Moon is Illuminated
Oct 14
Waxing Gibbous
Oct 18
Full
Oct 26
Last Quarter
Nov 3
New
Nov 10
First Quarter

Hourly Weather History & Observations

Time (EDT) Temp. Windchill Dew Point Humidity Pressure Visibility Wind Dir Wind Speed Gust Speed Precip Events Conditions
12:54 AM 42.1 °F - 39.9 °F 92% 30.32 in 10.0 mi Calm Calm - N/A   Clear
1:54 AM 41.0 °F - 39.0 °F 93% 30.31 in 10.0 mi Calm Calm - N/A   Clear
2:54 AM 39.9 °F - 39.0 °F 97% 30.30 in 10.0 mi Calm Calm - N/A   Clear
3:54 AM 39.9 °F - 37.0 °F 89% 30.29 in 9.0 mi Calm Calm - N/A   Clear
4:07 AM 39.2 °F - 37.4 °F 93% 30.27 in 8.0 mi Calm Calm - N/A   Scattered Clouds
4:15 AM 39.2 °F - 37.4 °F 93% 30.27 in 8.0 mi Calm Calm - N/A   Mostly Cloudy
4:29 AM 37.4 °F - 37.4 °F 100% 30.27 in 1.5 mi Calm Calm - N/A   Overcast
4:31 AM 39.2 °F - 37.4 °F 93% 30.27 in 0.8 mi Calm Calm - N/A   Mist
4:54 AM 37.9 °F - 37.0 °F 97% 30.30 in 0.5 mi Calm Calm - N/A Fog Fog
5:54 AM 41.0 °F 38.0 °F 41.0 °F 100% 30.30 in 0.2 mi SSW 4.6 mph - N/A Fog Fog
6:54 AM 42.1 °F 39.2 °F 42.1 °F 100% 30.30 in 0.2 mi South 4.6 mph - N/A Fog Fog
7:54 AM 43.0 °F 40.3 °F 42.1 °F 97% 30.30 in 0.2 mi South 4.6 mph - N/A Fog Fog
8:54 AM 43.0 °F 39.5 °F 43.0 °F 100% 30.29 in 0.2 mi SSE 5.8 mph - N/A Fog Fog
9:54 AM 45.0 °F 41.8 °F 44.1 °F 97% 30.29 in 0.2 mi South 5.8 mph - N/A Fog Fog
10:23 AM 44.6 °F 41.4 °F 44.6 °F 100% 30.26 in 1.0 mi South 5.8 mph - N/A   Overcast
10:42 AM 46.4 °F 43.5 °F 44.6 °F 93% 30.26 in 1.5 mi South 5.8 mph - N/A   Overcast
10:50 AM 46.4 °F 44.3 °F 44.6 °F 93% 30.26 in 3.0 mi South 4.6 mph - N/A   Overcast
10:51 AM 46.0 °F 43.9 °F 45.0 °F 96% 30.28 in 4.0 mi South 4.6 mph - N/A   Overcast
11:54 AM 46.9 °F - 46.0 °F 97% 30.27 in 9.0 mi South 6.9 mph - 0.00 in Rain Light Rain
12:28 PM 50.0 °F - 48.2 °F 94% 30.22 in 10.0 mi SSE 6.9 mph - 0.01 in   Overcast
12:54 PM 50.0 °F - 46.9 °F 89% 30.24 in 10.0 mi SSE 4.6 mph - 0.01 in   Overcast
1:25 PM 51.8 °F - 48.2 °F 88% 30.20 in 10.0 mi South 3.5 mph - N/A   Overcast
1:54 PM 53.1 °F - 48.0 °F 83% 30.23 in 10.0 mi WSW 4.6 mph - N/A   Overcast
2:54 PM 52.0 °F - 48.9 °F 89% 30.21 in 10.0 mi South 4.6 mph - N/A   Overcast
3:16 PM 51.8 °F - 48.2 °F 88% 30.19 in 2.5 mi South 5.8 mph - N/A   Overcast
3:44 PM 51.8 °F - 50.0 °F 94% 30.18 in 4.0 mi South 3.5 mph - N/A   Overcast
3:54 PM 52.0 °F - 50.0 °F 93% 30.21 in 3.0 mi Calm Calm - 0.00 in Rain Light Rain
4:54 PM 52.0 °F - 51.1 °F 97% 30.20 in 6.0 mi SSW 3.5 mph - 0.00 in   Overcast
5:54 PM 52.0 °F - 51.1 °F 97% 30.20 in 9.0 mi South 3.5 mph - N/A   Overcast
6:54 PM 52.0 °F - 51.1 °F 97% 30.22 in 9.0 mi SW 3.5 mph - N/A   Overcast
7:15 PM 51.8 °F - 51.8 °F 100% 30.20 in 10.0 mi SW 3.5 mph - N/A   Overcast
7:44 PM 51.8 °F - 51.8 °F 100% 30.20 in 9.0 mi Calm Calm - N/A   Overcast
7:54 PM 52.0 °F - 51.1 °F 97% 30.23 in 9.0 mi Calm Calm - N/A   Overcast
8:54 PM 52.0 °F - 51.1 °F 97% 30.23 in 8.0 mi Calm Calm - N/A   Overcast
9:54 PM 52.0 °F - 51.1 °F 97% 30.23 in 8.0 mi WSW 3.5 mph - N/A   Overcast
10:38 PM 53.6 °F - 51.8 °F 94% 30.20 in 9.0 mi Calm Calm - N/A   Overcast
10:54 PM 52.0 °F - 51.1 °F 97% 30.23 in 7.0 mi Calm Calm - N/A   Overcast
11:06 PM 51.8 °F - 51.8 °F 100% 30.20 in 9.0 mi WSW 3.5 mph - N/A   Overcast
11:24 PM 51.8 °F - 50.0 °F 94% 30.20 in 8.0 mi WSW 3.5 mph - N/A   Overcast
11:54 PM 52.0 °F - 51.1 °F 97% 30.22 in 8.0 mi Calm Calm - N/A   Overcast